Hourly Data Report for October 02, 2017

All times are specified in Local Standard Time (LST). Add 1 hour to adjust for Daylight Saving Time where and when it is observed.

WINNIPEG A CS
MANITOBA

49°55'00.000" N
97°14'58.000" W
238.70 m
502S001
71849
XWG

Download Data

Hourly Data (October 2017)
Hourly Data Report for October 2, 2017
Temp Definition
°C
Dew Point Temp Definition
°C
Rel Hum Definition
%
Wind Dir Definition
10's deg

Wind Spd Definition
km/h
Visibility Definition
km
Stn Press Definition
kPa
Hmdx Definition


Wind Chill Definition


Weather Definition


TIME
00:00 14.7 13.1 90 16 21   97.46     LegendNANA
01:00 13.9 13.0 94 13 12   97.37     LegendNANA
02:00 14.6 13.2 91 15 14   97.39     LegendNANA
03:00 14.7 13.3 92 15 14   97.37     LegendNANA
04:00 14.5 13.5 94 14 16   97.32     LegendNANA
05:00 14.3 13.6 95 16 17   97.33     LegendNANA
06:00 14.3 13.5 95 17 22   97.36     LegendNANA
07:00 14.1 12.4 90 20 29   97.41     LegendNANA
08:00 12.2 10.9 92 20 20   97.54     LegendNANA
09:00 12.5 10.7 89 19 21   97.58     LegendNANA
10:00 13.3 10.8 85 19 21   97.65     LegendNANA
11:00 13.6 9.3 75 21 26   97.68     LegendNANA
12:00 13.9 8.7 71 21 30   97.76     LegendNANA
13:00 14.8 7.8 63 21 27   97.82     LegendNANA
14:00 16.0 7.9 59 20 27   97.86     LegendNANA
15:00 16.5 6.6 52 21 29   97.89     LegendNANA
16:00 16.6 5.9 49 22 23   97.97     LegendNANA
17:00 15.6 5.7 52 22 19   98.03     LegendNANA
18:00 13.5 4.6 55 22 18   98.09     LegendNANA
19:00 12.4 4.8 60 21 13   98.20     LegendNANA
20:00 11.8 5.2 64 20 13   98.30     LegendNANA
21:00 10.2 4.9 70 19 14   98.36     LegendNANA
22:00 9.1 4.2 72 22 12   98.40     LegendNANA
23:00 7.0 3.2 77 22 10   98.41     LegendNANA

Notes on Data Quality.

Legend

  • E = Estimated
  • M = Missing
  • NA = Not Available
  • ‡ = Partner data that is not subject to review by the National Climate Archives
Date modified: